Temperature
17 17 17 17 17 17 17 17 17 16 16 16 16 16 16 15 15 15 15 14 14 14 14 14 14 14 14 13 14 14 14 14 14 14 14 14 14 14 14 14 14 14 14
18 17 17 17 17 17 17 17 17 16 16 16 16 16 16 16 15 15 15 14 14 14 14 14 14 14 14 14 14 14 14 14 14 14 14 14 14 14 14 14 14 14 14
18 18 18 17 17 17 17 17 17 17 16 16 16 16 16 16 15 15 15 15 14 14 14 14 14 14 14 14 14 14 14 14 14 14 14 14 14 14 14 14 14 14 14
18 18 17 17 17 17 17 17 17 17 16 16 16 16 16 16 16 15 15 15 14 14 14 14 14 14 14 14 14 14 14 14 14 14 14 14 14 14 14 14 14 14 14
18 17 17 17 17 17 17 17 17 17 16 16 16 16 16 16 16 15 15 15 14 14 14 14 14 14 14 14 14 14 14 14 14 14 14 14 14 14 14 14 14 14 14
17 17 17 17 17 17 17 17 17 16 16 16 16 16 16 15 15 15 15 14 14 14 14 14 14 14 14 14 14 14 13 13 13 13 13 14 14 14 13 13 13 13 13
17 17 17 17 16 16 16 16 16 16 16 16 16 15 15 15 15 14 14 14 14 14 14 14 14 14 14 14 14 14 13 13 13 13 13 13 13 13 13 13 13 12 13
16 16 16 16 16 16 16 16 16 16 15 15 15 15 15 14 14 14 14 14 13 13 13 13 13 13 13 13 13 13 13 13 13 13 13 13 13 13 12 12 12 12 12
16 15 15 15 15 15 15 15 15 15 15 14 14 14 14 14 13 13 13 13 13 13 13 13 13 13 13 13 12 13 13 13 12 12 12 12 12 12 12 11 11 11 11
15 14 14 14 15 14 14 14 14 14 14 13 13 13 13 13 12 12 12 12 12 12 12 12 12 12 12 12 12 12 12 12 12 12 11 11 11 11 11 11 10 10 10
14 14 14 14 14 13 13 13 13 13 13 13 12 12 12 11 11 11 11 11 11 11 11 11 11 11 11 11 11 11 10 10 11 11 11 10 10 10 10 10 10 10 9
13 13 13 13 13 13 13 12 12 12 12 12 11 11 11 11 10 10 10 10 10 10 10 10 10 10 10 9 9 9 9 9 9 9 9 9 9 9 9 9 9 9 9
12 12 12 12 12 12 12 12 12 11 11 11 11 10 10 10 10 10 9 9 9 9 9 9 9 9 9 8 8 8 8 8 8 8 8 8 8 8 8 8 8 8 8
12 12 12 12 11 11 11 11 11 11 10 10 10 10 9 9 9 9 9 9 8 8 8 8 8 8 7 7 7 7 7 7 7 7 7 7 7 7 7 7 7 7 8
11 11 11 11 11 11 10 10 10 10 9 9 9 9 8 8 8 8 8 8 8 7 7 7 7 7 7 7 7 6 6 6 6 6 6 6 6 6 6 6 6 6 6
11 10 10 10 10 10 10 9 9 9 8 8 8 8 7 7 7 7 7 7 6 6 6 6 6 6 6 6 5 5 5 5 5 5 5 4 4 4 4 5 5 5 5
10 10 10 10 9 9 9 9 8 8 7 7 7 7 6 6 6 6 6 5 5 5 5 5 5 4 4 4 4 4 4 4 4 3 3 3 3 3 3 3 4 4 4
10 9 9 9 9 8 8 8 7 7 7 6 6 5 5 5 5 5 4 4 4 4 4 3 3 3 3 3 2 2 2 3 3 3 3 3 3 3 3 3 3 3 3
9 9 8 8 8 7 7 7 6 6 6 5 5 4 4 4 4 3 3 3 3 3 3 2 2 2 2 2 2 2 2 2 2 2 2 2 2 2 2 2 2 3 3
8 8 8 7 7 7 6 6 5 5 4 4 4 3 3 3 3 3 2 2 2 2 2 2 1 1 1 1 1 1 1 1 1 1 1 1 2 2 2 2 2 2 2
8 7 7 6 6 6 5 5 4 4 3 3 3 2 2 2 2 1 1 1 1 1 1 1 1 1 1 1 1 1 1 1 1 1 1 1 1 1 2 2 2 2 2
7 6 6 6 5 5 4 4 3 3 2 2 2 2 1 1 1 1 1 1 1 0 0 0 0 0 0 0 0 0 0 0 0 0 0 1 1 1 1 2 2 2 2
6 6 5 5 4 4 3 3 3 2 2 2 1 1 1 1 0 0 0 0 0 -0 -0 -0 -0 -0 -0 -0 -0 -0 -0 -0 -0 -0 0 0 1 1 1 1 1 2 2
5 5 4 4 4 3 3 2 2 2 2 1 1 1 0 0 0 0 -0 -0 -0 -0 -0 -0 -0 -0 -0 -0 -0 -0 -1 -1 -1 -0 -0 0 0 1 1 1 1 2 2
5 4 4 3 3 3 2 2 2 1 1 1 0 0 0 -0 -0 -0 -0 -0 -0 -0 -1 -1 -1 -0 -0 -0 -0 -1 -1 -1 -0 -0 -0 0 1 1 1 1 1 1 2
4 4 3 3 2 2 2 2 1 1 1 0 0 -0 -0 -0 -0 -1 -1 -1 -1 -1 -1 -1 -1 -1 -1 -0 -0 -0 -0 -0 -0 -0 0 0 1 1 1 1 1 1 2
Wind_Speed
10 9 8 8 8 8 8 9 8 7 8 9 9 9 9 9 8 8 7 6 6 5 4 5 5 4 3 3 2 2 3 3 3 3 2 2 3 3 4 5 8 9 11
10 9 9 8 8 8 8 8 8 8 8 9 8 9 9 9 9 10 9 8 8 8 7 6 6 5 5 4 4 4 4 4 4 4 3 3 4 4 4 4 6 8 9
8 8 8 8 8 8 8 7 7 7 7 7 8 9 9 9 9 10 9 9 9 9 8 8 8 7 7 5 5 5 5 5 5 4 4 3 3 3 3 4 5 6 8
8 7 7 8 8 7 7 7 7 7 7 7 8 8 9 9 9 9 9 9 9 9 9 9 9 9 9 8 7 7 6 6 5 5 5 5 5 4 3 5 5 5 5
7 7 7 6 6 6 6 6 6 6 7 7 6 7 7 7 8 9 9 9 8 8 8 8 9 10 11 9 7 7 7 6 6 6 6 5 5 4 5 4 6 7 6
6 5 4 4 4 4 4 4 5 4 4 5 5 6 6 6 8 11 9 7 7 8 7 7 6 7 8 9 10 9 9 8 8 6 6 7 9 7 6 5 5 6 6
6 4 3 3 3 2 2 3 3 3 3 3 3 4 4 4 6 7 9 6 6 6 5 4 4 3 3 4 6 7 8 9 9 7 9 10 9 7 6 7 7 8 9
6 5 4 3 3 3 3 2 1 2 2 2 2 2 2 2 4 5 6 4 3 3 3 3 3 2 2 2 3 4 5 6 7 7 9 10 9 8 7 8 9 9 9
7 6 4 4 4 4 4 3 2 3 3 2 2 2 2 2 1 2 4 2 2 1 0 1 1 1 2 2 2 4 6 6 6 8 10 11 12 12 9 6 6 7 9
8 6 5 5 5 5 5 5 5 5 6 6 7 7 7 6 8 7 5 3 2 1 1 2 2 2 3 3 2 4 6 7 5 6 6 8 8 9 9 8 8 8 8
8 8 9 8 8 7 7 6 7 8 9 9 9 8 9 9 10 11 8 4 2 2 2 2 3 5 5 5 3 3 6 7 6 5 5 6 6 5 5 6 7 7 9
9 10 10 9 8 8 8 8 7 8 8 8 8 8 7 7 9 10 11 9 5 3 2 2 3 6 6 6 4 4 6 4 3 3 4 5 6 6 6 7 8 9 11
11 10 9 10 9 8 8 8 7 7 7 6 6 6 6 6 7 10 10 9 8 4 2 4 5 6 5 4 5 6 4 3 3 3 4 5 6 7 7 7 8 8 10
11 9 8 9 9 9 8 7 6 6 6 6 5 5 4 5 6 6 6 6 6 5 4 4 5 5 4 4 4 4 4 3 3 4 5 6 6 6 7 7 8 8 8
9 8 8 8 8 9 9 8 7 6 5 6 4 4 4 4 5 6 5 5 4 4 3 3 4 4 5 5 5 5 5 5 5 5 6 6 7 7 7 7 7 7 8
8 7 6 6 6 7 8 9 14 11 13 12 9 6 5 5 6 8 9 9 9 7 4 4 4 5 5 5 6 6 6 6 6 7 7 7 7 8 9 8 8 9 10
7 6 5 5 6 6 6 6 6 7 11 12 11 10 9 8 9 10 10 9 9 7 5 4 5 5 6 6 6 6 7 7 7 7 7 8 8 8 8 9 9 9 10
6 6 6 5 5 5 5 5 4 4 4 5 7 10 10 10 10 10 9 6 6 6 5 5 5 5 6 6 6 7 7 7 7 7 8 8 8 9 9 10 10 11 12
6 5 5 5 5 5 5 5 4 5 4 3 4 6 9 8 8 9 8 5 5 6 5 5 5 6 6 7 7 7 8 8 9 8 8 9 9 9 10 10 11 13 13
5 8 7 5 5 5 4 4 4 3 3 3 4 4 5 5 5 6 6 5 5 5 6 6 6 7 7 7 7 8 8 8 9 8 9 9 9 10 11 13 12 12 12
5 6 7 6 5 4 4 3 3 3 3 3 3 4 5 4 4 5 5 6 6 6 6 7 7 7 7 7 7 8 10 9 9 9 9 9 10 11 11 11 12 13 13
5 5 4 4 4 4 3 3 2 2 2 3 3 4 6 4 4 5 5 6 6 6 6 6 6 6 7 7 8 8 9 9 9 9 10 11 11 11 11 11 12 12 12
5 6 5 4 4 4 4 3 2 2 2 2 3 3 4 5 5 5 6 6 6 6 7 7 7 7 8 9 9 8 9 9 10 11 11 12 11 11 11 12 14 14 13
5 5 5 4 3 3 3 2 2 2 2 3 3 3 4 5 5 6 6 6 7 7 8 8 8 10 12 12 11 11 11 13 15 13 13 12 12 12 11 12 13 14 13
5 4 4 3 3 2 2 2 2 2 2 3 3 3 4 5 5 6 6 7 8 8 9 10 9 10 13 15 14 14 17 19 17 15 13 10 12 13 12 13 12 13 13
4 4 3 3 2 2 2 2 2 2 2 3 3 3 4 5 5 6 7 7 8 8 9 10 12 14 16 14 16 19 20 19 18 17 13 9 11 11 12 11 14 12 13
Wind_Direction
184 186 183 185 187 184 189 196 196 193 190 193 197 197 198 196 191 189 196 191 196 204 200 201 210 192 193 193 184 180 185 177 210 257 252 269 269 270 276 261 259 260 265
184 183 183 180 180 186 196 200 196 197 198 201 201 202 204 201 195 196 203 201 203 210 212 209 220 208 208 204 197 203 205 201 208 241 252 251 252 260 266 269 267 262 261
177 179 180 179 182 191 197 195 197 200 202 201 198 204 206 203 200 204 206 206 210 215 214 214 221 212 221 219 214 217 219 214 211 229 253 246 257 258 265 268 267 266 267
170 173 182 188 192 195 192 190 194 194 196 200 204 208 208 204 203 205 207 212 217 222 221 221 221 216 223 224 224 226 225 223 219 232 253 259 259 255 246 264 277 266 268
162 171 188 186 183 183 189 190 187 188 197 198 202 209 207 204 208 206 207 212 217 225 229 228 229 226 225 223 227 229 223 228 231 240 254 264 264 256 256 255 271 283 277
148 159 164 154 162 177 187 184 179 183 188 186 200 205 203 216 215 206 205 212 216 222 231 236 236 238 238 233 234 230 219 226 235 240 252 257 265 263 265 263 270 280 285
119 120 118 128 145 167 169 160 169 177 174 181 197 196 198 215 205 201 202 201 212 219 220 226 236 239 228 243 247 244 238 234 231 236 252 258 265 262 262 267 261 260 266
102 98 96 109 106 101 110 128 146 147 149 157 168 177 182 213 198 194 190 187 195 208 209 207 216 246 275 262 262 263 263 258 249 242 248 258 263 267 257 261 268 269 268
77 72 71 90 96 90 88 86 91 98 102 111 108 118 111 59 69 167 159 142 144 147 123 144 196 267 320 300 271 277 285 284 272 259 259 267 273 274 270 269 266 265 275
71 68 63 71 78 78 77 74 73 78 77 77 65 59 62 53 50 63 88 98 100 83 53 40 35 1 342 343 287 284 289 293 302 304 293 289 283 281 271 249 253 261 269
68 67 62 62 68 73 75 75 82 83 79 74 69 59 53 47 45 49 59 69 68 60 40 23 15 12 358 347 331 280 278 291 297 296 297 298 299 292 285 268 252 251 261
70 67 60 57 62 67 72 70 73 81 81 75 74 63 49 42 43 43 45 47 46 56 29 8 360 5 4 359 356 328 318 319 314 315 313 310 310 306 302 295 282 269 260
70 65 62 62 59 59 68 72 71 73 79 74 72 67 47 34 30 33 35 35 37 46 25 16 13 13 9 7 1 353 351 358 345 326 311 305 303 301 302 301 296 289 280
71 62 60 64 61 56 55 58 68 69 78 78 76 70 52 33 23 16 17 17 18 21 14 13 18 20 23 11 0 2 4 350 332 313 304 302 305 307 307 307 302 304 299
70 66 65 68 73 68 63 54 61 54 80 94 87 83 65 41 8 10 21 14 5 1 6 20 21 14 11 6 359 354 352 349 340 327 315 311 309 307 305 307 299 298 291
74 66 70 76 78 82 84 73 55 63 64 68 72 76 59 47 28 29 28 27 24 27 44 29 14 7 360 352 346 341 339 338 333 325 317 312 309 307 305 304 298 294 293
84 80 80 84 88 88 87 91 81 54 53 55 53 53 49 37 33 27 23 26 29 33 36 19 5 354 348 343 337 331 325 323 320 316 312 310 306 304 302 301 301 298 295
82 84 89 88 91 90 88 88 87 81 57 37 30 33 32 31 29 24 19 26 23 23 17 3 352 343 337 331 325 322 319 318 315 313 310 306 305 304 303 301 300 298 297
85 86 86 85 85 86 85 83 79 76 69 49 28 18 14 14 18 18 19 23 11 4 358 350 342 335 329 324 319 316 313 311 310 309 307 306 306 305 301 299 297 295 293
86 98 95 93 89 85 83 83 77 71 61 46 30 13 3 11 13 5 8 4 359 351 344 337 333 329 326 321 318 316 314 312 312 310 308 307 306 302 299 298 297 296 293
94 95 93 91 88 87 85 82 77 69 54 37 17 1 3 7 359 353 353 353 348 342 337 333 329 328 326 322 321 319 316 312 312 311 309 308 306 303 300 296 293 292 291
102 99 95 95 91 86 83 76 70 59 40 25 5 357 2 7 357 351 349 346 343 339 337 333 331 329 326 325 322 319 315 313 313 313 310 306 303 300 298 296 295 294 292
105 104 98 92 90 88 78 64 53 41 24 10 1 0 1 359 354 351 348 345 343 341 339 335 329 327 329 325 321 315 311 311 312 309 304 301 299 298 296 295 294 295 293
108 110 108 100 89 80 70 54 42 33 24 13 5 1 358 354 351 349 346 342 340 338 336 334 330 328 329 328 323 318 314 314 313 305 298 294 295 294 293 292 294 294 294
109 108 107 102 92 81 67 55 44 36 27 16 8 3 358 356 353 349 346 343 339 336 336 334 331 330 329 327 325 323 321 317 312 309 303 294 291 292 293 293 294 296 295
106 103 99 95 88 79 69 57 46 35 25 18 14 8 1 355 351 347 345 342 339 334 333 332 332 332 329 328 326 325 323 319 317 314 308 297 294 294 298 296 297 296 296
Height
1505 1508 1512 1515 1519 1523 1526 1529 1531 1534 1536 1539 1541 1542 1543 1544 1545 1546 1547 1548 1549 1550 1550 1551 1552 1553 1554 1554 1555 1555 1556 1556 1556 1557 1557 1558 1558 1558 1558 1558 1558 1557 1557
1502 1506 1509 1513 1516 1519 1522 1525 1528 1530 1533 1535 1537 1539 1540 1541 1542 1543 1544 1545 1546 1547 1548 1548 1549 1550 1551 1552 1552 1552 1553 1553 1554 1553 1554 1554 1554 1554 1554 1554 1554 1553 1553
1499 1503 1507 1510 1513 1516 1519 1522 1524 1527 1529 1531 1533 1535 1536 1538 1539 1540 1541 1542 1543 1544 1545 1545 1546 1547 1548 1548 1549 1549 1550 1550 1550 1549 1549 1550 1550 1550 1549 1549 1549 1548 1548
1497 1500 1503 1507 1509 1513 1516 1518 1521 1523 1525 1527 1529 1531 1532 1533 1534 1535 1537 1538 1539 1540 1541 1542 1542 1543 1544 1545 1545 1546 1546 1546 1546 1545 1545 1545 1545 1545 1545 1544 1543 1543 1542
1494 1497 1501 1504 1506 1510 1512 1515 1517 1519 1521 1523 1524 1526 1527 1528 1529 1531 1532 1533 1535 1536 1536 1537 1538 1539 1539 1540 1541 1541 1541 1541 1541 1541 1540 1540 1539 1540 1539 1538 1537 1536 1535
1492 1495 1499 1501 1504 1507 1509 1511 1513 1515 1516 1518 1519 1521 1522 1523 1524 1526 1527 1528 1529 1530 1531 1532 1533 1534 1534 1535 1535 1536 1536 1536 1536 1535 1535 1534 1534 1534 1533 1532 1531 1529 1527
1491 1494 1497 1499 1502 1504 1506 1507 1509 1510 1512 1513 1514 1515 1516 1518 1520 1521 1522 1523 1524 1525 1526 1527 1528 1528 1529 1529 1529 1530 1530 1530 1530 1530 1529 1528 1528 1527 1527 1525 1524 1523 1521
1491 1494 1496 1498 1499 1501 1503 1504 1506 1507 1508 1509 1510 1512 1513 1514 1515 1516 1517 1518 1518 1519 1520 1521 1522 1522 1522 1523 1523 1523 1523 1523 1523 1523 1522 1521 1521 1521 1520 1518 1517 1514 1513
1491 1493 1495 1497 1498 1499 1501 1502 1503 1504 1505 1506 1507 1508 1508 1509 1510 1511 1512 1512 1513 1514 1514 1515 1516 1516 1516 1516 1516 1516 1516 1516 1516 1516 1515 1514 1514 1513 1512 1510 1509 1507 1503
1492 1494 1495 1496 1497 1498 1499 1500 1501 1502 1503 1504 1504 1504 1505 1506 1506 1507 1507 1508 1509 1509 1510 1510 1510 1510 1510 1510 1510 1509 1509 1509 1509 1508 1507 1507 1506 1505 1504 1503 1501 1499 1496
1494 1495 1496 1497 1498 1499 1499 1500 1500 1501 1502 1503 1503 1503 1504 1504 1504 1505 1505 1505 1505 1505 1505 1505 1505 1504 1504 1504 1503 1503 1503 1502 1501 1500 1499 1498 1498 1497 1496 1495 1494 1492 1489
1497 1497 1498 1499 1499 1500 1501 1501 1502 1502 1502 1503 1504 1504 1504 1505 1505 1504 1504 1504 1503 1503 1502 1501 1501 1500 1500 1499 1498 1498 1497 1496 1495 1493 1492 1491 1489 1489 1488 1486 1485 1483 1481
1499 1500 1501 1501 1502 1502 1502 1503 1503 1503 1503 1504 1504 1505 1505 1505 1504 1504 1504 1503 1501 1500 1499 1498 1497 1497 1496 1495 1494 1493 1492 1490 1489 1487 1486 1485 1483 1481 1480 1478 1477 1475 1473
1502 1503 1503 1504 1504 1504 1505 1505 1505 1505 1505 1505 1505 1505 1505 1505 1505 1504 1502 1501 1500 1498 1497 1496 1495 1494 1493 1491 1490 1489 1488 1486 1484 1482 1480 1479 1477 1475 1473 1471 1469 1466 1464
1505 1506 1506 1506 1507 1507 1507 1507 1507 1507 1506 1506 1506 1506 1505 1504 1503 1502 1501 1499 1498 1496 1495 1493 1492 1490 1489 1488 1486 1485 1483 1481 1479 1477 1475 1472 1470 1468 1467 1465 1462 1459 1456
1508 1508 1508 1508 1508 1508 1508 1508 1508 1508 1508 1507 1506 1506 1505 1504 1502 1500 1499 1497 1495 1493 1492 1490 1488 1487 1485 1483 1481 1479 1478 1476 1474 1471 1469 1467 1464 1462 1459 1457 1455 1453 1449
1510 1510 1510 1510 1510 1510 1510 1510 1510 1509 1509 1507 1506 1505 1504 1502 1500 1499 1497 1495 1493 1491 1489 1487 1485 1483 1481 1479 1477 1475 1473 1471 1469 1466 1464 1461 1459 1456 1454 1451 1448 1446 1443
1512 1511 1511 1511 1511 1511 1511 1511 1510 1509 1509 1507 1506 1504 1503 1501 1499 1497 1495 1493 1491 1489 1486 1484 1482 1480 1478 1476 1474 1471 1469 1467 1464 1462 1459 1456 1454 1451 1448 1445 1442 1439 1436
1513 1513 1512 1512 1512 1512 1511 1511 1510 1509 1507 1506 1505 1503 1501 1499 1497 1495 1493 1491 1488 1486 1484 1482 1480 1477 1475 1473 1470 1468 1465 1462 1460 1457 1454 1451 1448 1445 1442 1439 1436 1432 1429
1514 1513 1513 1513 1512 1512 1511 1510 1509 1508 1507 1505 1504 1502 1500 1498 1496 1494 1492 1489 1487 1484 1482 1479 1477 1475 1472 1469 1467 1464 1461 1458 1454 1451 1448 1445 1442 1439 1436 1432 1429 1426 1422
1514 1514 1513 1513 1512 1511 1510 1510 1509 1507 1506 1505 1503 1501 1499 1497 1495 1493 1490 1488 1485 1483 1480 1477 1474 1471 1469 1466 1462 1459 1456 1452 1449 1446 1442 1439 1436 1432 1429 1426 1422 1419 1415
1514 1514 1513 1513 1512 1511 1510 1509 1508 1507 1506 1504 1503 1501 1499 1497 1494 1492 1489 1487 1484 1481 1478 1474 1471 1468 1465 1462 1458 1454 1451 1447 1444 1440 1437 1433 1430 1426 1423 1419 1415 1412 1408
1513 1513 1513 1512 1511 1511 1510 1509 1508 1507 1505 1504 1502 1500 1498 1496 1493 1491 1488 1485 1482 1479 1475 1472 1469 1466 1462 1459 1455 1451 1447 1443 1439 1435 1431 1427 1423 1420 1416 1413 1409 1406 1402
1513 1513 1512 1512 1511 1511 1510 1509 1508 1506 1505 1503 1501 1499 1497 1495 1492 1490 1486 1483 1480 1477 1473 1470 1466 1463 1459 1455 1451 1447 1443 1439 1435 1431 1427 1422 1418 1414 1411 1407 1404 1400 1397
1513 1513 1512 1512 1511 1510 1510 1508 1507 1506 1504 1503 1501 1499 1496 1494 1491 1488 1485 1481 1478 1474 1471 1467 1463 1459 1456 1452 1448 1444 1440 1435 1431 1426 1422 1418 1413 1410 1406 1402 1399 1395 1392
1513 1512 1512 1511 1511 1510 1509 1508 1507 1505 1504 1502 1500 1498 1495 1493 1490 1486 1483 1479 1476 1472 1468 1465 1461 1457 1453 1448 1444 1440 1436 1431 1427 1422 1418 1413 1409 1405 1402 1398 1394 1390 1387